Location: *
(43.6428°N, 11.5461°E)
Time: 00:38:45
(UTC+00:00)

BREEZE-M DEB (TANK) - Pass Details

Date: 21 October 2019
Orbit: 306 x 13125 km, 49.6° (Epoch: 20 November)

Event Time Altitude Azimuth Distance (km) Brightness Sun altitude
Rises 16:53:51 0° 230° (SW) 5,576 9.1 -6.6°
Reaches altitude 10° 16:59:02 10° 227° (SW) 3,235 7.7 -7.5°
Maximum altitude 17:05:05 53° 152° (SSE) 678 3.1 -8.6°
Enters shadow 17:07:24 13° 74° (ENE) 1,275 4.0 -9.0°
